K5TCS Weather Reports


Display with metric or nautical units.
time (UTC)temp
F
wind
direction
speed
MPH
gust
MPH
rain 1hr
in
rain 24hr
in
rain mn
in
humidity
%
barometer
mb
20260905150016 68 0.0 0.0 0.00 0.68 0.00 16 1027.8
20260905145015 66 0.0 0.0 0.00 0.68 0.00 14 1027.3
20260905144035 65 0.0 0.0 0.00 0.68 0.00 15 1027.8
20260905143015 64 0.0 0.0 0.00 0.68 0.00 15 1027.8
20260905142016 64 0.0 0.0 0.00 0.68 0.00 13 1027.7
20260905141015 63 0.0 0.0 0.00 0.68 0.00 12 1028.0
20260905140015 61 0.0 0.0 0.00 0.68 0.00 12 1027.6
20260905135016 60 0.0 0.0 0.00 0.68 0.00 13 1027.1
20260905134016 60 0.0 2.0 0.00 0.68 0.00 13 1027.3
20260905133015 59 0.0 3.0 0.00 0.68 0.00 13 1027.2
20260905132015 59 248 1.0 3.0 0.00 0.68 0.00 13 1027.0
20260905131038 59 0.0 0.0 0.00 0.68 0.00 13 1027.0
20260905130017 59 0.0 0.0 0.00 0.68 0.00 12 1026.6
20260905125017 58 0.0 0.0 0.00 0.68 0.00 12 1026.3
20260905124017 58 0.0 0.0 0.00 0.68 0.00 12 1026.2
20260905123017 58 0.0 0.0 0.00 0.68 0.00 13 1025.7
20260905122157 57 0.0 0.0 0.00 0.68 0.00 13 1025.6
20260905121017 57 0.0 0.0 0.00 0.68 0.00 14 1025.4
20260905120017 58 0.0 2.0 0.00 0.68 0.00 14 1025.6
20260905115017 58 0.0 0.0 0.00 0.68 0.00 15 1025.6
20260905114017 59 0.0 0.0 0.00 0.68 0.00 15 1026.0
20260905113017 60 0.0 3.0 0.00 0.68 0.00 15 1026.0
20260905112017 60 0.0 2.0 0.00 0.68 0.00 14 1026.0
20260905111017 60 248 1.0 3.0 0.00 0.68 0.00 14 1025.4
20260905110017 59 270 1.0 3.0 0.00 0.68 0.00 15 1024.8
20260905105017 61 248 2.0 4.0 0.00 0.68 0.00 15 1025.3
20260905104037 61 270 2.0 4.0 0.00 0.68 0.00 13 1024.7
20260905103017 60 0.0 3.0 0.00 0.68 0.00 14 1024.1
20260905102017 60 0.0 0.0 0.00 0.68 0.00 14 1024.1
20260905101017 60 0.0 3.0 0.00 0.68 0.00 14 1024.0
20260905100017 60 0.0 3.0 0.00 0.68 0.00 15 1024.2
20260905095017 60 248 1.0 2.0 0.00 0.68 0.00 15 1024.2
20260905094017 62 248 2.0 4.0 0.00 0.68 0.00 15 1024.4
20260905093057 62 270 2.0 4.0 0.00 0.68 0.00 13 1024.4
20260905092017 60 0.0 2.0 0.00 0.68 0.00 13 1024.1
20260905091017 59 0.0 0.0 0.00 0.68 0.00 14 1023.7
20260905090017 59 0.0 0.0 0.00 0.68 0.00 16 1023.2
20260905085017 59 0.0 0.0 0.00 0.68 0.00 17 1023.7
20260905084017 61 0.0 3.0 0.00 0.68 0.00 17 1025.5
20260905083017 62 270 1.0 4.0 0.00 0.68 0.00 17 1026.0
20260905082017 62 248 1.0 3.0 0.00 0.68 0.00 17 1025.9
20260905081017 62 248 1.0 4.0 0.00 0.68 0.00 17 1026.9
20260905080016 62 270 2.0 5.0 0.00 0.68 0.00 17 1027.0
20260905075036 62 248 1.0 3.0 0.00 0.68 0.00 18 1026.9
20260905074016 62 270 2.0 5.0 0.00 0.68 0.00 19 1026.5
20260905073036 62 270 2.0 4.0 0.00 0.68 0.00 18 1026.5
20260905072036 62 248 1.0 3.0 0.00 0.68 0.00 19 1026.5
20260905071016 63 270 1.0 4.0 0.00 0.68 0.00 20 1027.0
20260905070036 63 270 2.0 5.0 0.00 0.68 0.00 20 1027.1
20260905065016 63 270 2.0 4.0 0.00 0.68 0.00 20 1027.2
20260905064016 62 270 2.0 5.0 0.00 0.68 0.00 17 1027.1
20260905063016 61 270 1.0 3.0 0.00 0.68 0.00 15 1026.5
20260905062017 61 0.0 3.0 0.00 0.68 0.00 16 1026.6
20260905061016 62 270 2.0 4.0 0.00 0.68 0.00 16 1029.0
20260905060016 61 248 2.0 4.0 0.00 0.68 0.68 15 1028.6
20260905055016 62 248 1.0 4.0 0.00 0.68 0.68 15 1028.5
20260905054016 62 270 2.0 5.0 0.00 0.68 0.68 14 1028.5
20260905053016 61 0.0 3.0 0.00 0.68 0.68 13 1027.9
20260905052036 61 248 1.0 3.0 0.00 0.68 0.68 13 1027.8
20260905051036 62 270 1.0 4.0 0.00 0.68 0.68 12 1027.9
20260905050016 61 270 1.0 4.0 0.00 0.68 0.68 11 1027.5
20260905045016 61 248 1.0 4.0 0.00 0.68 0.68 11 1027.6
20260905044016 61 248 1.0 3.0 0.00 0.68 0.68 11 1028.1
20260905043016 61 0.0 3.0 0.00 0.68 0.68 11 1028.2
20260905042016 62 270 1.0 3.0 0.00 0.68 0.68 10 1028.2
20260905041036 62 0.0 3.0 0.00 0.68 0.68 10 1028.0
20260905040036 62 0.0 0.0 0.00 0.68 0.68 10 1027.9
20260905035016 62 0.0 0.0 0.00 0.68 0.68 10 1027.7
20260905034036 62 0.0 0.0 0.02 0.68 0.68 10 1027.2
20260905033016 62 0.0 0.0 0.11 0.68 0.68 10 1027.3
20260905032015 62 0.0 0.0 0.35 0.68 0.68 10 1027.4
20260905031016 62 0.0 2.0 0.39 0.68 0.68 10 1026.6
20260905030016 62 23 1.0 4.0 0.39 0.68 0.68 10 1025.8
20260905025036 62 45 3.0 9.0 0.39 0.68 0.68 10 1025.9
20260905024016 63 23 2.0 7.0 0.37 0.66 0.66 12 1025.6
20260905023016 64 45 3.0 6.0 0.28 0.57 0.57 15 1026.2
20260905022035 66 248 3.0 7.0 0.04 0.33 0.33 15 1026.7
20260905021015 68 248 2.0 8.0 0.00 0.29 0.29 16 1026.0
20260905020036 68 0.0 3.0 0.00 0.29 0.29 21 1025.7
20260905015015 69 0.0 0.0 0.00 0.29 0.29 22 1025.4
20260905014017 69 0.0 0.0 0.00 0.29 0.29 26 1025.0
20260905013017 70 0.0 2.0 0.00 0.29 0.29 31 1025.0
20260905012017 71 338 1.0 4.0 0.00 0.29 0.29 31 1025.5
20260905011017 70 293 1.0 4.0 0.00 0.29 0.29 29 1024.5
20260905010017 71 0.0 0.0 0.00 0.29 0.29 27 1024.3
20260905005037 71 0.0 0.0 0.00 0.29 0.29 29 1024.7
20260905004017 71 0.0 0.0 0.00 0.29 0.29 30 1024.8
20260905003038 71 0.0 0.0 0.00 0.29 0.29 29 1024.7
20260905002017 70 0.0 2.0 0.00 0.29 0.29 29 1024.2
20260905001017 70 315 1.0 3.0 0.00 0.29 0.29 29 1024.7
20260905000017 70 338 1.0 4.0 0.00 0.29 0.29 29 1024.6
20260904235017 70 0.0 3.0 0.00 0.29 0.29 30 1024.7
20260904234017 70 0.0 0.0 0.00 0.30 0.29 29 1024.6
20260904233037 71 0.0 3.0 0.00 0.30 0.29 28 1025.2
20260904232018 71 0.0 4.0 0.00 0.33 0.29 27 1025.2
20260904231017 70 338 1.0 3.0 0.00 0.38 0.29 27 1024.6
20260904230017 69 0.0 4.0 0.00 0.38 0.29 27 1024.4
20260904225017 69 315 1.0 4.0 0.03 0.38 0.29 25 1024.1
20260904224017 68 315 2.0 6.0 0.07 0.38 0.29 22 1024.6
20260904223017 67 315 3.0 7.0 0.11 0.38 0.29 18 1024.5
20260904222017 65 293 3.0 5.0 0.12 0.38 0.29 12 1023.9
20260904221037 62 270 4.0 10.0 0.12 0.38 0.29 14 1023.2
20260904220017 64 270 3.0 13.0 0.15 0.38 0.29 12 1023.8
20260904215017 66 293 1.0 3.0 0.16 0.35 0.26 12 1023.8
20260904214017 65 0.0 3.0 0.12 0.31 0.22 12 1023.6
20260904213017 66 0.0 3.0 0.09 0.29 0.18 12 1024.2
20260904212017 65 338 1.0 4.0 0.14 0.28 0.17 13 1023.4
20260904211017 64 0 2.0 5.0 0.16 0.28 0.17 12 1023.2
20260904210017 65 23 1.0 7.0 0.13 0.25 0.14 12 1023.9
20260904205016 63 45 2.0 13.0 0.09 0.21 0.10 11 1023.4
20260904204016 64 68 1.0 6.0 0.09 0.21 0.10 12 1023.4
20260904203017 66 68 3.0 9.0 0.08 0.20 0.09 19 1023.9
20260904202017 71 45 2.0 6.0 0.03 0.14 0.03 29 1025.5
20260904201017 74 45 2.0 7.0 0.01 0.12 0.01 32 1026.1
20260904200016 75 0 4.0 11.0 0.01 0.12 0.01 37 1026.4
20260904195016 75 0 3.0 11.0 0.01 0.12 0.01 34 1026.3
20260904194017 72 23 3.0 7.0 0.01 0.12 0.01 28 1025.4
20260904193017 72 293 3.0 7.0 0.01 0.12 0.01 40 1025.9
20260904192017 73 293 4.0 10.0 0.00 0.21 0.00 43 1026.4
20260904191016 75 293 4.0 13.0 0.00 0.30 0.00 42 1027.2
20260904190016 75 293 3.0 10.0 0.00 0.40 0.00 42 1027.0
20260904185016 74 293 5.0 12.0 0.00 0.42 0.00 42 1027.1
20260904184016 74 315 4.0 10.0 0.00 0.45 0.00 43 1027.1
20260904183016 73 315 5.0 12.0 0.00 0.46 0.00 45 1027.2
20260904182016 74 270 4.0 12.0 0.00 0.46 0.00 46 1027.4
20260904181016 81 158 2.0 15.0 0.00 0.46 0.00 44 1029.1
20260904180016 82 135 1.0 5.0 0.00 0.46 0.00 38 1029.2
20260904175016 82 135 2.0 8.0 0.00 0.46 0.00 38 1029.2
20260904174016 81 113 3.0 13.0 0.00 0.46 0.00 40 1028.6
20260904173016 81 135 3.0 11.0 0.00 0.46 0.00 39 1028.7
20260904172036 80 135 1.0 9.0 0.00 0.46 0.00 40 1028.8
20260904171016 79 45 1.0 5.0 0.00 0.46 0.00 41 1029.3
20260904170016 78 0.0 3.0 0.00 0.46 0.00 41 1028.8
20260904165016 78 0.0 1.0 0.00 0.46 0.00 41 1028.9
20260904164036 79 0.0 3.0 0.00 0.46 0.00 41 1029.3
20260904163016 80 0.0 3.0 0.00 0.46 0.00 39 1030.0
20260904162036 79 0.0 1.0 0.00 0.46 0.00 39 1029.4
20260904161043 78 0.0 1.0 0.00 0.46 0.00 39 1029.5
20260904160016 77 270 1.0 6.0 0.00 0.46 0.00 38 1028.8
20260904155016 77 338 1.0 6.0 0.00 0.46 0.00 37 1028.8
20260904154016 76 338 2.0 6.0 0.00 0.46 0.00 36 1028.4
20260904153016 75 270 3.0 7.0 0.00 0.46 0.00 36 1028.4
20260904152016 75 270 2.0 9.0 0.00 0.46 0.00 35 1028.3
20260904151016 74 270 2.0 6.0 0.00 0.46 0.00 33 1027.9